FLOCK 3K-5 (43899 NORAD) Tracking and Keplerian Element Data

This shows tracking and keplerian element data for the satellite.

Feedback or suggestion? Click here.




ElementValue
Catalog43899
NameFLOCK 3K-5
Epoch Orbit316
Epoch Day16.83643782
Epoch Year2019
RAAN286.1737
Inclination97.2999
Eccentricity0.0023022
Argument of Perigee167.7631
Mean Anonmoly192.4171
Mean Motion15.23576647
Decay Rate5.48E-06
L11 43899U 18111Z 19016.83643782 .00000548 00000-0 25688-4 0 9993
L22 43899 97.2999 286.1737 0023022 167.7631 192.4171 15.23576647 3165

Live tracking and technical data element details for FLOCK 3K-5 (NORAD 43899). FLOCK 3K-5 can be tracked NOW for your location showing map with azimuth and elevation plus other details from your city location.

Track the satellite on the map from your city or location and see movement details for azimuth, elevation, latitude, longitude, range, height, and movement on the map or in text.







IsCatalogInMostPopularTable: catalog: 43899, numindb: 16
Update: records affected: 1



GetName: 43899 FLOCK 3K-5

Hit Count: updated at: Thu, 17 Jan 2019 16:20:42 GMT